Terug naar catalogus

DELTA 1 DEB

ActiefSSO
NORAD 21475·DEBRIS·🇺🇸 United States

Gelanceerd Jun 12, 1975 vanaf Vandenberg Space Force Base

Loading…

Volgende Passages (komende 24 uur)

TLE

VersSource: Space-Track

Epoch: Sep 13, 2026, 22:59 UTC

1 21475U 75052FK  26256.95810208  .00000006  00000-0  70613-4 0  9999
2 21475  99.6179  62.8323 0091448   7.9113 145.6106 13.54161838743516

Volg DELTA 1 DEB in realtime met AllMySat

Download on the App Store